Regional Weather Roundup
Issued by NWS

Home | Current Version | Previous Version | Text Only | Print | Product List | Glossary Off
Versions: 1 2 3 4 5 6 7 8 9 10 11 12 13 14 15 16 17 18 19 20 21 22 23 24 25 26 27 28 29 30 31 32 33 34 35 36 37 38 39 40 41 42 43 44 45 46 47 48 49 50

000
ASUS43 KMKX 302211
RWRWI

WISCONSIN REGIONAL WEATHER ROUNDUP
NATIONAL WEATHER SERVICE MILWAUKEE/SULLIVAN WI
500 PM CDT SAT APR 30 2016

NOTE: "FAIR" INDICATES FEW OR NO CLOUDS BELOW 12,000 FEET WITH NO
SIGNIFICANT WEATHER AND/OR OBSTRUCTIONS TO VISIBILITY.

WIZ001-002-006>008-014>016-023>028-302300-
NORTHWEST WISCONSIN

CITY           SKY/WX    TMP DP  RH WIND       PRES   REMARKS
SUPERIOR ARPT  CLOUDY    42  33  70 NE15G28   30.22S
ASHLAND        SUNNY     46  35  65 N21G29    30.22F
HAYWARD        CLOUDY    49  27  42 NE23G32   30.14S
SIREN          CLOUDY    54  27  35 NE20G28   30.12R
CUMBERLAND     CLOUDY    52  32  46 NE22G29   30.07S
RICE LAKE      CLOUDY    55  33  43 N20G30    30.07R
CHETEK         CLOUDY    57  34  42 NE6G16    30.05R
LADYSMITH      CLOUDY    58  33  39 NE16      30.07S
EAU CLAIRE     CLOUDY    57  33  40 E12       30.03R
MENOMONIE      CLOUDY    58  33  39 NE8       30.05R
NEW RICHMOND   CLOUDY    57  33  39 NE12G18   30.05S
OSCEOLA        CLOUDY    57  36  45 NE18G24   30.08S
$$

WIZ003>005-009-010-017-018-302300-
NORTH CENTRAL WISCONSIN

CITY           SKY/WX    TMP DP  RH WIND       PRES   REMARKS
MANITOWISH WTR MOSUNNY   53  33  47 NE10G23   30.11S
ARBOR VITAE    CLOUDY    56  35  44 NE8G20    30.10S
WOODRUFF       CLOUDY    56  35  44 NE8G20    30.10S
RHINELANDER    CLOUDY    56  32  40 NE13G21   30.08F
EAGLE RIVER    CLOUDY    54  29  37 E12G20    30.10S
LAND O LAKES   PTSUNNY   53  32  44 NE12G21   30.13S
PHILLIPS       CLOUDY    56  33  43 NE14G24   30.07F
TOMAHAWK       CLOUDY    56  31  39 NE10G21   30.06F
MEDFORD        CLOUDY    56  34  43 E12       30.03S
MERRILL        CLOUDY    57  34  41 E15       30.05S
$$

WIZ029-030-035-036-043>047-302300-
CENTRAL WISCONSIN

CITY           SKY/WX    TMP DP  RH WIND       PRES   REMARKS
WAUSAU         CLOUDY    56  32  40 E14G22    30.03S
MOSINEE        SUNNY     54  30  40 E10       30.04F
MARSHFIELD     CLOUDY    54  31  41 E12       30.02F
STEVENS POINT  CLOUDY    50  28  43 NE20G26   30.04S
WAUPACA        CLOUDY    53  32  46 NE9G18    30.04F
WAUTOMA        CLOUDY    51  35  54 E16G25    30.03S
WISC RAPIDS    CLOUDY    53  28  38 E13       30.05S
CAMP DOUGLAS     N/A     51  41  66 E13       30.02R
$$

WIZ011>013-019>022-031-037>040-048>050-302300-
NORTHEAST WISCONSIN

CITY           SKY/WX    TMP DP  RH WIND       PRES   REMARKS
ANTIGO         CLOUDY    52  34  49 E16       30.05F
SHAWANO        CLOUDY    55  32  41 E14G24    30.06F
OCONTO         CLOUDY    50  32  50 NE8G16    30.07F
STURGEON BAY   CLOUDY    50  30  46 NE9       30.10F
GREEN BAY      CLOUDY    51  37  58 NE15      30.06F
MANITOWOC      CLOUDY    47  35  63 MISG      30.05F
APPLETON       CLOUDY    50  32  50 NE17      30.02F
CLINTONVILLE   CLOUDY    54  27  35 NE13G21   30.05F
OSHKOSH        CLOUDY    51  37  58 NE12      30.01F
$$

WIZ032>034-041-042-053>061-302300-
SOUTHWEST WISCONSIN

CITY           SKY/WX    TMP DP  RH WIND       PRES   REMARKS
LA CROSSE      LGT RAIN  50  39  66 E15G21    30.03R
SPARTA         CLOUDY    52  34  51 E16G23    30.04R
VIROQUA        CLOUDY    44  43  95 E10       30.02R
BOSCOBEL       RAIN      47  47 100 NE10G22   29.98S FOG
PRAIRIE DU CHI CLOUDY    46  41  84 NE12G31   29.96R
PLATTEVILLE    CLOUDY    44  43  94 NE25G32   29.91S
$$

WIZ056-057-062-063-064-067-068-302300-
SOUTH CENTRAL WISCONSIN

CITY           SKY/WX    TMP DP  RH WIND       PRES   REMARKS
REEDSBURG      RAIN      45  43  94 E5        30.02R
BARABOO/DELLS  RAIN      44  40  85 E8        30.03R
LONE ROCK      RAIN      45  41  86 NE13      30.01R FOG
MINERAL POINT  LGT RAIN  43  43 100 NE25G32   29.93S
MADISON        LGT RAIN  45  40  82 NE12      30.00R
MIDDLETON      CLOUDY    46  42  85 NE13      30.00S
WATERTOWN      LGT RAIN  44  44 100 E8G17     30.00R
MONROE         LGT RAIN  43  41  93 NE21G28   29.93F
JANESVILLE     LGT RAIN  45  45 100 E17G23    29.97R FOG
$$

WIZ051-052-058>065-066-070>072-302300-
SOUTHEAST WISCONSIN

CITY           SKY/WX    TMP DP  RH WIND       PRES   REMARKS
MILWAUKEE      LGT RAIN  42  39  89 NE16      30.00F
WAUKESHA       LGT RAIN  41  37  87 E13G22    30.00F
MILWAUKEE/TIMM RAIN      43  37  81 NE10G17   30.01F
RACINE         LGT RAIN  43  39  86 NE12      30.02R FOG
BURLINGTON     LGT RAIN  42  41  93 E13       29.98S
KENOSHA        LGT RAIN  44  41  89 E16       29.98F FOG
FOND DU LAC    LGT RAIN  51  37  58 E13G21    30.01F
SHEBOYGAN      LGT RAIN  46  38  73 NE16G25   30.02F
WEST BEND      LGT RAIN  43  39  87 E10       30.01S
JUNEAU         RAIN      44  39  81 NE12      30.02R
$$

LSZ147-162-302300-
LAKE SUPERIOR

STATION/POSITION TIME  TEMP    WIND        PRES    WAVE
                       AIR SEA DIR/SP/G            HT/PER
                 (UTC) (F)     (DEG/KT/KT) (MB)    (FT/S)
W MID LAKE BUOY  2150   40 37   70/ 14/ 16 1025.2F   2/ 5
DEVILS ISLAND    2200   40      90/ 19/ 21 1024.8F
SAXON HARBOR     2100   40      50/ 20/ 25 1022.7S
$$

LMZ867-665-643>646-302300-
LAKE MICHIGAN

STATION/POSITION TIME  TEMP    WIND        PRES    WAVE
                       AIR SEA DIR/SP/G            HT/PER
                 (UTC) (F)     (DEG/KT/KT) (MB)    (FT/S)
CHAMBERS ISLAND  2100   44      10/  8/ 10 1019.6F
N MID LAKE BUOY  2150   42 39  360/ 10/ 12 1019.2F   0
NORTHPORT PIER   2100   48      20/  7/  9 1019.6F
ALGOMA LAKESHORE 2115           50/ 14/ 19   N/A
KEWAUNEE LAKESHO 2100   45      20/ 12/ 15 1017.9F
SHEBOYGAN LAKESH 2200   42      20/ 18/ 20 1017.4F
PORT WASHINGTON  2100   44      40/ 18/ 22 1017.6F
S MID LAKE BUOY  2150   43 40   70/ 12/ 14 1015.6R   1/ 3
KENOSHA   LAKESH 2200   42      60/ 14/ 16 1015.2F
$$

TC  - TEMPERATURE IN CELSIUS
VSB - VISIBILITY IN STATUTE MILES
WCI - WIND CHILL INDEX
HX  - HEAT INDEX





USA.gov is the U.S. government's official web portal to all federal, state and local government web resources and services.